SL-16 R/B (23405 NORAD) Tracking and Keplerian Element Data

This shows tracking and keplerian element data for the satellite.

Feedback or suggestion? Click here.




ElementValue
Catalog23405
NameSL-16 R/B
Epoch Orbit22563
Epoch Day229.91660502
Epoch Year2018
RAAN38.1986
Inclination70.9821
Eccentricity0.0002354
Argument of Perigee342.0093
Mean Anonmoly18.0946
Mean Motion14.15205273
Decay Rate-3E-08
L11 23405U 94077B 18229.91660502 -.00000003 00000-0 22915-4 0 9999
L22 23405 70.9821 38.1986 0002354 342.0093 18.0946 14.15205273225639

Live tracking and technical data element details for SL-16 R/B (NORAD 23405). SL-16 R/B can be tracked NOW for your location showing map with azimuth and elevation plus other details from your city location.

Track the satellite on the map from your city or location and see movement details for azimuth, elevation, latitude, longitude, range, height, and movement on the map or in text.







IsCatalogInMostPopularTable: catalog: 23405, numindb: 26
Update: records affected: 1



GetName: 23405 SL-16 R/B

Hit Count: updated at: Mon, 20 Aug 2018 00:45:40 GMT